This is the latest recevied weather packets stored in our database for station/object N3TTT-13. If no packets are shown the sender has not sent any weather packets the latest 10 day(s).
| Time | Temp. | Humidity | Pressure | Rain* | Wind** | Luminosity | Snow |
|---|---|---|---|---|---|---|---|
| 1777556272 | 13.89° C | 84% | 1008.9 hPa | 0 mm | - | 183 W/m² | - |
| 1777555968 | 14.44° C | 85% | 1008.9 hPa | 0 mm | - | 631 W/m² | - |
| 1777555663 | 13.33° C | 86% | 1008.4 hPa | 0 mm | - | 536 W/m² | - |
| 1777555360 | 13.89° C | 87% | 1008.7 hPa | 0 mm | - | 147 W/m² | - |
| 1777555056 | 13.89° C | 88% | 1008.6 hPa | 0 mm | - | 144 W/m² | - |
| 1777554754 | 13.89° C | 88% | 1008.3 hPa | 0 mm | - | 170 W/m² | - |
| 1777554451 | 13.33° C | 88% | 1008.4 hPa | 0 mm | - | 316 W/m² | - |
| 1777554147 | 13.33° C | 89% | 1008.5 hPa | 0 mm | - | 116 W/m² | - |
| 1777553845 | 13.33° C | 89% | 1008.4 hPa | 0 mm | - | 142 W/m² | - |
| 1777553541 | 12.78° C | 89% | 1008 hPa | 0 mm | - | 108 W/m² | - |
| 1777553236 | 12.78° C | 90% | 1008.4 hPa | 0 mm | - | 384 W/m² | - |
| 1777552933 | 12.78° C | 92% | 1007.9 hPa | 0 mm | - | 213 W/m² | - |
| 1777552627 | 12.22° C | 93% | 1008.1 hPa | 0 mm | - | 231 W/m² | - |
| 1777552325 | 12.22° C | 94% | 1008.3 hPa | 0 mm | - | 167 W/m² | - |
| 1777552021 | 11.67° C | 94% | 1008.5 hPa | 0 mm | - | 128 W/m² | - |
| 1777551718 | 11.67° C | 95% | 1008.2 hPa | 0 mm | - | 130 W/m² | - |
| 1777551415 | 11.67° C | 95% | 1008.3 hPa | 0 mm | - | 140 W/m² | - |
| 1777551112 | 11.67° C | 96% | 1008.4 hPa | 0 mm | - | 107 W/m² | - |
| 1777550809 | 11.67° C | 96% | 1008 hPa | 0 mm | - | 109 W/m² | - |
| 1777550505 | 11.67° C | 96% | 1008.1 hPa | 0 mm | - | 106 W/m² | - |
| 1777550202 | 11.67° C | 96% | 1007.9 hPa | 0 mm | - | 110 W/m² | - |
| 1777549898 | 11.11° C | 96% | 1008.1 hPa | 0 mm | - | 120 W/m² | - |
| 1777549594 | 11.11° C | 96% | 1008.1 hPa | 0 mm | - | 96 W/m² | - |
| 1777549290 | 11.11° C | 96% | 1008.1 hPa | 0 mm | - | 94 W/m² | - |
| 1777548988 | 11.11° C | 96% | 1008.3 hPa | 0 mm | - | 103 W/m² | - |
* Rain latest hour (hover to see other rain measurements)
** Current wind speed in m/s (hover to see current wind gust speed)